Change the Weather History Date:

Sunday, June 16, 2013

  Actual Average Record
Temperature  
Mean Temperature 64 °F -  
Max Temperature 70 °F 73 °F 87 °F (2003)
Min Temperature 59 °F 54 °F 32 °F (2008)
Growing Degree Days 14 (Base 50)    
Moisture  
Dew Point 62 °F    
Average Humidity 92    
Maximum Humidity 100    
Minimum Humidity 77    
Precipitation  
Precipitation 0.00 in 0.08 in - ()
Sea Level Pressure  
Sea Level Pressure 29.90 in    
Wind  
Wind Speed 3 mph ()    
Max Wind Speed 10 mph    
Max Gust Speed -    
Visibility 5.1 miles    
Events Fog    
Averages and records for this station are not official NWS values.
T = Trace of Precipitation, MM = Missing Value Source: Averaged Metar Reports

Daily Weather History Graph

Daily Weather History Graph

Search for Another Location

Airport or City:

Trip Planner

Search our weather history database for the weather conditions in past years. The results will help you decide how hot, cold, wet, or windy it might be!

Date:

Astronomy

Jun. 16, 2013 Rise Set
Actual Time 7:38 AM ART 6:08 PM ART
Civil Twilight 7:13 AM ART 6:34 PM ART
Nautical Twilight 6:44 AM ART 7:02 PM ART
Astronomical Twilight 6:16 AM ART 7:31 PM ART
Moon 12:44 PM ART (6/16) 12:22 AM ART (6/16)
Length of Visible Light 11h 20m
Length of Day
10h 30m
Waxing Crescent, 49% of the Moon is Illuminated
Jun 16
Waxing Crescent
Jun 16
First Quarter
Jun 23
Full
Jun 30
Last Quarter
Jul 8
New

Hourly Weather History & Observations

Time (ART) Temp. Dew Point Humidity Pressure Visibility Wind Dir Wind Speed Gust Speed Precip Events Conditions
12:00 AM 64.4 °F 62.6 °F 94% 29.89 in 6.2 mi SSE 5.8 mph - N/A   Mostly Cloudy
1:00 AM 62.6 °F 62.6 °F 100% 29.86 in 6.2 mi Calm Calm - N/A   Scattered Clouds
2:00 AM 62.6 °F 60.8 °F 94% 29.89 in 6.2 mi South 4.6 mph - N/A   Overcast
3:00 AM 61 °F 61 °F 98% 29.83 in 6 mi SE 2.3 mph - -   Mist
3:00 AM 60.8 °F 60.8 °F 100% 29.83 in 6.2 mi SE 2.3 mph - N/A   Partly Cloudy
4:00 AM 62.6 °F 60.8 °F 94% 29.83 in 1.9 mi Calm Calm - N/A   Mostly Cloudy
5:00 AM 62.6 °F 60.8 °F 94% 29.83 in 1.9 mi Calm Calm - N/A   Mostly Cloudy
6:00 AM 60.8 °F 60.8 °F 100% 29.83 in 0.5 mi Calm Calm - N/A Fog Fog
7:00 AM 59.0 °F 59.0 °F 100% 29.86 in 0.5 mi Calm Calm - N/A Fog Fog
8:00 AM 60.8 °F 60.8 °F 100% 29.86 in 0.5 mi Calm Calm - N/A Fog Fog
9:00 AM 62 °F 62 °F 99% 29.88 in 1 mi Calm Calm - - Fog Light Fog
9:00 AM 62.6 °F 62.6 °F 100% 29.89 in 0.7 mi Calm Calm - N/A   Overcast
10:00 AM 62.6 °F 62.6 °F 100% 29.92 in 1.6 mi Calm Calm - N/A   Overcast
11:00 AM 64.4 °F 64.4 °F 100% 29.92 in 5.0 mi SSW 2.3 mph - N/A   Overcast
12:00 PM 69.8 °F 62.6 °F 78% 29.92 in 6.2 mi NNW 2.3 mph - N/A   Mostly Cloudy
1:00 PM 69.8 °F 62.6 °F 78% 29.89 in 6.2 mi NW 3.5 mph - N/A   Overcast
2:00 PM 69.8 °F 64.4 °F 83% 29.89 in 6.2 mi WSW 4.6 mph - N/A   Mostly Cloudy
3:00 PM 69 °F 63 °F 77% 29.88 in 12 mi SW 3.5 mph - -   Overcast
3:00 PM 69.8 °F 62.6 °F 78% 29.89 in 6.2 mi SW 3.5 mph - N/A   Mostly Cloudy
4:00 PM 69.8 °F 64.4 °F 83% 29.92 in 6.2 mi SW 9.2 mph - N/A   Overcast
5:00 PM 68.0 °F 62.6 °F 83% 29.92 in 6.2 mi SW 3.5 mph - N/A   Mostly Cloudy
6:00 PM 68.0 °F 64.4 °F 88% 29.95 in - SW 4.6 mph - N/A   Clear
7:00 PM 66.2 °F 64.4 °F 94% 29.95 in 6.2 mi SW 4.6 mph - N/A   Mostly Cloudy
8:00 PM 66.2 °F 64.4 °F 94% 29.98 in 6.2 mi SW 8.1 mph - N/A   Mostly Cloudy
9:00 PM 64 °F 62 °F 91% 29.98 in 12 mi SW 10.4 mph - -   Overcast
9:00 PM 64.4 °F 62.6 °F 94% 29.98 in 6.2 mi SW 10.4 mph - N/A   Mostly Cloudy
10:00 PM 64.4 °F 62.6 °F 94% 30.01 in 6.2 mi SW 8.1 mph - N/A   Scattered Clouds
11:00 PM 64.4 °F 60.8 °F 88% 30.01 in 6.2 mi SSW 6.9 mph - N/A   Mostly Cloudy